Date String (YYYY-MM-DD hh:mm:ss) UTC,Instrument flags,absolute air pressure of the measurement (hPa),sample flow rate (lpm),inlet stack bypass flow (lpm),air temperature of the measurement (°C),ambient temperature measured by the external sensor (°C),aerosol sample conditioner tube jacket temperature (°C),OPC LED temperature (°C),internal box temperature (°C),relative humidity of the measurement (%),span deviation,mass concentration of particles derived from Lorenz-Mie calculation of OPC scattering (μg/m³),mass concentration of particles derived from Lorenz-Mie calculation of OPC scattering (μg/m³),mass concentration of particles derived from Lorenz-Mie calculation of OPC scattering (μg/m³)
DateTimeUTC,F1_M11,P_M11,Q1_M11,Q2_M11,T1_M11,T2_M11,T3_M11,T4_M11,T5_M11,U1_M11,ZSPAN_M11,X0_M11,X2_M11,X1_M11
2023-12-03 08:00:00,SystemResetWarning,0818.3,5.00,000.00,019.0,018.6,000.0,027.3,020.0,13.3,0000.0,0002.69,0000.67,0000.28
2023-12-03 08:01:00,SystemResetWarning,0818.4,5.00,000.00,018.9,018.3,000.0,027.3,020.0,13.4,0000.0,0003.47,0000.68,0000.27
2023-12-03 08:02:00,SystemResetWarning,0818.3,5.00,000.00,018.9,018.1,000.0,027.3,020.0,13.5,0000.0,0003.05,0000.62,0000.27
2023-12-03 08:03:00,SystemResetWarning,0818.4,5.00,000.00,018.9,017.9,000.0,027.3,020.0,13.6,0000.0,0002.99,0000.63,0000.28
2023-12-03 08:04:00,SystemResetWarning,0818.3,5.00,000.00,018.8,017.8,000.0,027.3,020.0,13.5,0000.0,0003.09,0000.68,0000.29
2023-12-03 08:05:00,SystemResetWarning,0818.4,5.01,000.00,018.8,017.6,000.0,027.3,020.0,13.6,0000.0,0003.21,0000.70,0000.29
2023-12-03 08:06:00,SystemResetWarning,0818.4,5.01,000.00,018.8,017.5,000.0,027.3,020.0,13.7,0000.0,0003.27,0000.70,0000.30
2023-12-03 08:07:00,SystemResetWarning,0818.4,5.00,000.00,018.8,017.4,000.0,027.3,020.0,13.8,0000.0,0003.33,0000.73,0000.31
2023-12-03 08:08:00,SystemResetWarning,0818.4,5.00,000.00,018.8,017.4,000.0,027.3,020.0,13.7,0000.0,0003.81,0000.75,0000.30
2023-12-03 08:09:00,SystemResetWarning,0818.4,5.00,000.00,018.8,017.4,000.0,027.3,020.0,13.7,0000.0,0004.06,0000.77,0000.30
2023-12-03 08:10:00,SystemResetWarning,0818.3,5.00,000.00,018.8,017.4,000.0,027.3,020.0,13.9,0000.0,0004.80,0000.78,0000.31
2023-12-03 08:11:00,SystemResetWarning,0818.4,5.00,000.00,018.8,017.4,000.0,027.3,020.0,13.9,0000.0,0005.77,0000.78,0000.30
2023-12-03 08:12:00,SystemResetWarning,0818.4,5.00,000.00,018.8,017.4,000.0,027.3,020.0,13.9,0000.0,0004.56,0000.75,0000.31
2023-12-03 08:13:00,SystemResetWarning,0818.4,5.00,000.00,018.7,017.4,000.0,027.3,020.0,13.8,0000.0,0004.07,0000.74,0000.30
2023-12-03 08:14:00,SystemResetWarning,0818.4,5.00,000.00,018.7,017.4,000.0,027.3,020.0,14.0,0000.0,0004.07,0000.72,0000.30
2023-12-03 08:15:00,SystemResetWarning,0818.4,5.00,000.00,018.7,017.4,000.0,027.3,020.0,13.9,0000.0,0004.06,0000.69,0000.29
2023-12-03 08:16:00,SystemResetWarning,0818.4,5.00,000.00,018.7,017.4,000.0,027.3,020.0,14.0,0000.0,0004.05,0000.71,0000.28
2023-12-03 08:17:00,SystemResetWarning,0818.4,5.00,000.00,018.7,017.4,000.0,027.3,020.0,14.0,0000.0,0004.13,0000.75,0000.29
2023-12-03 08:18:00,SystemResetWarning,0818.3,5.00,000.00,018.7,017.4,000.0,027.3,020.0,13.9,0000.0,0004.14,0000.75,0000.29
2023-12-03 08:19:00,SystemResetWarning,0818.3,5.00,000.00,018.7,017.4,000.0,027.3,020.0,13.9,0000.0,0003.67,0000.74,0000.29
2023-12-03 08:20:00,SystemResetWarning,0818.3,5.00,000.00,018.7,017.4,000.0,027.3,020.0,13.8,0000.0,0003.32,0000.74,0000.29
2023-12-03 08:21:00,SystemResetWarning,0818.3,5.01,000.00,018.7,017.8,000.0,027.2,020.4,13.7,0000.0,0002.84,0000.72,0000.28
2023-12-03 08:22:00,SystemResetWarning,0818.3,5.00,000.00,018.9,018.7,000.0,027.2,020.9,13.7,0000.0,0001.64,0000.70,0000.28
2023-12-03 08:23:00,SystemResetWarning,0818.3,4.99,000.00,019.0,019.1,000.0,027.3,020.8,13.6,0000.0,0001.70,0000.70,0000.27
2023-12-03 08:24:00,SystemResetWarning,0818.3,5.00,000.00,019.0,019.0,000.0,027.3,020.5,13.6,0000.0,0001.77,0000.71,0000.27
2023-12-03 08:25:00,SystemResetWarning,0818.2,5.00,000.00,019.0,018.7,000.0,027.3,020.1,13.6,0000.0,0001.99,0000.76,0000.27
2023-12-03 08:26:00,SystemResetWarning,0818.2,5.00,000.00,018.9,018.4,000.0,027.3,020.0,13.7,0000.0,0001.98,0000.78,0000.27
2023-12-03 08:27:00,SystemResetWarning,0818.2,5.00,000.00,018.9,018.3,000.0,027.3,020.0,13.8,0000.0,0001.92,0000.76,0000.28
2023-12-03 08:28:00,SystemResetWarning,0818.2,5.00,000.00,018.9,018.1,000.0,027.3,020.0,13.8,0000.0,0001.78,0000.71,0000.27
2023-12-03 08:29:00,SystemResetWarning,0818.3,5.00,000.00,018.8,018.0,000.0,027.3,020.0,13.7,0000.0,0001.90,0000.73,0000.28
2023-12-03 08:30:00,SystemResetWarning,0818.3,5.00,000.00,018.8,017.8,000.0,027.3,020.0,13.7,0000.0,0002.11,0000.77,0000.28
2023-12-03 08:31:00,SystemResetWarning,0818.3,5.01,000.00,018.8,017.8,000.0,027.3,020.0,13.6,0000.0,0002.20,0000.78,0000.29
2023-12-03 08:32:00,SystemResetWarning,0818.3,5.01,000.00,018.8,017.7,000.0,027.3,020.0,13.7,0000.0,0002.20,0000.79,0000.29
2023-12-03 08:33:00,SystemResetWarning,0818.4,5.00,000.00,018.8,017.7,000.0,027.3,020.0,13.8,0000.0,0002.17,0000.79,0000.29
2023-12-03 08:34:00,SystemResetWarning,0818.3,5.00,000.00,018.8,017.7,000.0,027.3,020.0,13.8,0000.0,0002.19,0000.79,0000.29
2023-12-03 08:35:00,SystemResetWarning,0818.3,5.00,000.00,018.8,017.6,000.0,027.3,020.0,13.8,0000.0,0002.18,0000.80,0000.29
2023-12-03 08:36:00,SystemResetWarning,0818.3,4.99,000.00,018.7,017.6,000.0,027.3,020.0,13.8,0000.0,0001.96,0000.75,0000.30
2023-12-03 08:37:00,SystemResetWarning,0818.3,5.00,000.00,018.7,017.6,000.0,027.3,020.0,13.8,0000.0,0001.83,0000.71,0000.29
2023-12-03 08:38:00,SystemResetWarning,0818.3,4.99,000.00,018.7,017.6,000.0,027.3,020.0,13.8,0000.0,0001.76,0000.69,0000.30
2023-12-03 08:39:00,SystemResetWarning,0818.3,5.00,000.00,018.7,017.6,000.0,027.3,020.0,13.7,0000.0,0001.80,0000.68,0000.29
2023-12-03 08:40:00,SystemResetWarning,0818.3,5.01,000.00,018.7,017.6,000.0,027.3,020.0,13.5,0000.0,0001.85,0000.70,0000.29
2023-12-03 08:41:00,SystemResetWarning,0818.3,5.01,000.00,018.7,017.6,000.0,027.3,020.0,13.4,0000.0,0001.70,0000.69,0000.29
2023-12-03 08:42:00,SystemResetWarning,0818.3,5.00,000.00,018.7,017.6,000.0,027.3,020.0,13.4,0000.0,0001.67,0000.69,0000.29
2023-12-03 08:43:00,SystemResetWarning,0818.4,5.00,000.00,018.7,017.6,000.0,027.3,020.0,13.4,0000.0,0001.68,0000.67,0000.28
2023-12-03 08:44:00,SystemResetWarning,0818.4,5.00,000.00,018.7,017.6,000.0,027.3,020.0,13.4,0000.0,0001.81,0000.71,0000.29
2023-12-03 08:45:00,SystemResetWarning,0818.4,5.00,000.00,018.7,017.6,000.0,027.3,020.0,13.4,0000.0,0001.84,0000.74,0000.29
2023-12-03 08:46:00,SystemResetWarning,0818.4,4.99,000.00,018.7,017.6,000.0,027.3,020.0,13.4,0000.0,0001.82,0000.75,0000.30
2023-12-03 08:47:00,SystemResetWarning,0818.4,5.00,000.00,018.7,017.6,000.0,027.3,020.0,13.3,0000.0,0001.78,0000.73,0000.29
2023-12-03 08:48:00,SystemResetWarning,0818.4,5.00,000.00,018.7,017.6,000.0,027.3,020.0,13.4,0000.0,0001.81,0000.75,0000.30
2023-12-03 08:49:00,SystemResetWarning,0818.4,5.00,000.00,018.7,017.6,000.0,027.3,020.0,13.5,0000.0,0001.83,0000.76,0000.29
2023-12-03 08:50:00,SystemResetWarning,0818.4,5.01,000.00,018.7,017.6,000.0,027.3,020.0,13.2,0000.0,0001.87,0000.79,0000.30
2023-12-03 08:51:00,SystemResetWarning,0818.4,5.01,000.00,018.7,017.6,000.0,027.3,020.0,13.4,0000.0,0001.73,0000.75,0000.30
2023-12-03 08:52:00,SystemResetWarning,0818.4,5.00,000.00,018.7,017.6,000.0,027.3,020.0,13.3,0000.0,0001.62,0000.71,0000.30
2023-12-03 08:53:00,SystemResetWarning,0818.4,5.00,000.00,018.7,017.6,000.0,027.3,020.0,13.2,0000.0,0001.54,0000.69,0000.29
2023-12-03 08:54:00,SystemResetWarning,0818.5,5.00,000.00,018.7,017.6,000.0,027.3,020.0,13.3,0000.0,0002.05,0000.67,0000.29
2023-12-03 08:55:00,SystemResetWarning,0818.4,5.00,000.00,018.7,017.6,000.0,027.3,020.0,13.4,0000.0,0002.58,0000.66,0000.29
2023-12-03 08:56:00,SystemResetWarning,0818.3,5.00,000.00,018.7,017.6,000.0,027.3,020.0,13.3,0000.0,0002.61,0000.67,0000.29
2023-12-03 08:57:00,SystemResetWarning,0818.3,5.00,000.00,018.7,017.6,000.0,027.3,020.0,13.2,0000.0,0002.60,0000.67,0000.29
2023-12-03 08:58:00,SystemResetWarning,0818.3,5.00,000.00,018.7,017.5,000.0,027.3,020.0,13.3,0000.0,0002.59,0000.67,0000.28
2023-12-03 08:59:00,SystemResetWarning,0818.3,5.00,000.00,018.7,017.5,000.0,027.2,020.0,13.4,0000.0,0002.59,0000.66,0000.28
